This is the latest recevied weather packets stored in our database for station/object KF5JED-13. If no packets are shown the sender has not sent any weather packets the latest 1 day(s).
| Time | Temp. | Humidity | Pressure | Rain* | Wind** | Luminosity | Snow |
|---|---|---|---|---|---|---|---|
| 1778010485 | 16.67° C | 47% | 1010.4 hPa | 0 mm | 5.81 m/s, 52° | 902 W/m² | - |
| 1778010182 | 16.11° C | 45% | 1010.7 hPa | 0 mm | 3.58 m/s, 23° | 568 W/m² | - |
| 1778009877 | 16.11° C | 45% | 1010.7 hPa | 0 mm | 4.02 m/s, 57° | 587 W/m² | - |
| 1778009575 | 16.67° C | 45% | 1010.7 hPa | 0 mm | 5.81 m/s, 67° | 768 W/m² | - |
| 1778009273 | 16.67° C | 44% | 1010.8 hPa | 0 mm | 4.02 m/s, 16° | 602 W/m² | - |
| 1778008971 | 16.11° C | 44% | 1010.7 hPa | 0 mm | 4.02 m/s, 14° | 513 W/m² | - |
| 1778008668 | 16.67° C | 43% | 1010.9 hPa | 0 mm | 4.02 m/s, 27° | 671 W/m² | - |
| 1778008367 | 16.67° C | 43% | 1010.9 hPa | 0 mm | 4.92 m/s, 32° | 765 W/m² | - |
| 1778008063 | 16.11° C | 44% | 1011 hPa | 0 mm | 4.92 m/s, 24° | 901 W/m² | - |
| 1778007763 | 16.11° C | 45% | 1010.9 hPa | 0 mm | 3.58 m/s, 54° | 979 W/m² | - |
| 1778007459 | 15.56° C | 47% | 1011.1 hPa | 0 mm | 4.02 m/s, 43° | 640 W/m² | - |
| 1778007156 | 15.56° C | 46% | 1010.9 hPa | 0 mm | 3.58 m/s, 28° | 490 W/m² | - |
| 1778006852 | 15.56° C | 46% | 1010.9 hPa | 0 mm | 4.92 m/s, 36° | 494 W/m² | - |
| 1778006550 | 15.56° C | 47% | 1011.1 hPa | 0 mm | 4.02 m/s, 355° | 536 W/m² | - |
| 1778006246 | 15.56° C | 46% | 1011.6 hPa | 0 mm | 5.36 m/s, 15° | 487 W/m² | - |
| 1778005951 | 15.56° C | 46% | 1010.8 hPa | 0 mm | 2.68 m/s, 3° | 550 W/m² | - |
| 1778005640 | 16.11° C | 45% | 1010.9 hPa | 0 mm | 3.58 m/s, 8° | 684 W/m² | - |
| 1778005337 | 15° C | 47% | 1010.9 hPa | 0 mm | 4.47 m/s, 6° | 522 W/m² | - |
| 1778005033 | 15° C | 46% | 1011.2 hPa | 0 mm | 6.26 m/s, 33° | 399 W/m² | - |
| 1778004731 | 15° C | 47% | 1011.1 hPa | 0 mm | 3.58 m/s, 0° | 420 W/m² | - |
| 1778004427 | 15.56° C | 46% | 1011.3 hPa | 0 mm | 5.36 m/s, 351° | 447 W/m² | - |
| 1778004124 | 15° C | 48% | 1011.1 hPa | 0 mm | 2.68 m/s, 29° | 610 W/m² | - |
| 1778003820 | 15.56° C | 46% | 1011.3 hPa | 0 mm | 4.47 m/s, 18° | 533 W/m² | - |
| 1778003517 | 15.56° C | 46% | 1011.2 hPa | 0 mm | 4.92 m/s, 30° | 590 W/m² | - |
| 1778003213 | 16.11° C | 45% | 1011.1 hPa | 0 mm | 7.15 m/s, 7° | 592 W/m² | - |
* Rain latest hour (hover to see other rain measurements)
** Current wind speed in m/s (hover to see current wind gust speed)